Wetterdaten: Montag, 07.03.2011
Datum Zeit Temp. a Sch. Temp. a Son. Temp. a Bod. Feuchte a. Luftdruck Regen Wind Richtung Richtung Sonnenschein Helligkeit Taupunkt Windchill
07.03.2011 00:02 -4,0 C -3,8 C -2,7 C 71 % 1031 hPa 0,0 l/m 0,0 m/s (0 Bft) O 100 0 min 0 lux -8,5 C -4,0 C
07.03.2011 00:07 -4,2 C -3,8 C -2,7 C 71 % 1031 hPa 0,0 l/m 0,0 m/s (0 Bft) O 100 0 min 0 lux -8,7 C -4,2 C
07.03.2011 00:12 -4,4 C -3,9 C -2,7 C 72 % 1031 hPa 0,0 l/m 0,0 m/s (0 Bft) O 100 0 min 0 lux -8,7 C -4,4 C
07.03.2011 00:17 -4,6 C -4,0 C -2,7 C 71 % 1031 hPa 0,0 l/m 0,0 m/s (0 Bft) O 95 0 min 0 lux -9,0 C -4,6 C
07.03.2011 00:22 -4,6 C -4,0 C -2,9 C 72 % 1031 hPa 0,0 l/m 0,0 m/s (0 Bft) O 95 0 min 0 lux -8,9 C -4,6 C
07.03.2011 00:27 -4,7 C -4,0 C -2,8 C 72 % 1031 hPa 0,0 l/m 0,0 m/s (0 Bft) O 95 0 min 0 lux -9,0 C -4,7 C
07.03.2011 00:32 -4,7 C -4,1 C -2,9 C 72 % 1031 hPa 0,0 l/m 0,0 m/s (0 Bft) O 95 0 min 0 lux -9,0 C -4,7 C
07.03.2011 00:37 -4,6 C -4,2 C -2,9 C 72 % 1031 hPa 0,0 l/m 0,0 m/s (0 Bft) O 95 0 min 0 lux -8,9 C -4,6 C
07.03.2011 00:42 -4,6 C -4,2 C -2,9 C 72 % 1031 hPa 0,0 l/m 0,0 m/s (0 Bft) O 95 0 min 0 lux -8,9 C -4,6 C
07.03.2011 00:47 -4,5 C -4,2 C -2,9 C 71 % 1031 hPa 0,0 l/m 0,0 m/s (0 Bft) O 95 0 min 0 lux -8,9 C -4,5 C
07.03.2011 00:52 -4,4 C -4,2 C -3,0 C 72 % 1031 hPa 0,0 l/m 0,0 m/s (0 Bft) O 95 0 min 0 lux -8,7 C -4,4 C
07.03.2011 00:57 -4,3 C -4,2 C -2,9 C 72 % 1031 hPa 0,0 l/m 0,0 m/s (0 Bft) O 95 0 min 0 lux -8,6 C -4,3 C
07.03.2011 01:02 -4,2 C -4,2 C -3,0 C 71 % 1031 hPa 0,0 l/m 0,0 m/s (0 Bft) O 90 0 min 0 lux -8,7 C -4,2 C
07.03.2011 01:06 -4,1 C -4,2 C -3,1 C 71 % 1031 hPa 0,0 l/m 0,0 m/s (0 Bft) O 95 0 min 0 lux -8,6 C -4,1 C
07.03.2011 01:11 -4,2 C -4,2 C -3,2 C 70 % 1031 hPa 0,0 l/m 0,0 m/s (0 Bft) O 95 0 min 0 lux -8,8 C -4,2 C
07.03.2011 01:16 -4,2 C -4,2 C -3,2 C 71 % 1032 hPa 0,0 l/m 0,0 m/s (0 Bft) O 95 0 min 0 lux -8,7 C -4,2 C
07.03.2011 01:21 -4,4 C -4,2 C -3,3 C 71 % 1032 hPa 0,0 l/m 0,0 m/s (0 Bft) O 95 0 min 0 lux -8,8 C -4,4 C
07.03.2011 01:26 -4,5 C -4,3 C -3,3 C 71 % 1032 hPa 0,0 l/m 0,0 m/s (0 Bft) O 95 0 min 0 lux -8,9 C -4,5 C
07.03.2011 01:31 -4,6 C -4,3 C -3,3 C 71 % 1032 hPa 0,0 l/m 0,0 m/s (0 Bft) O 95 0 min 0 lux -9,0 C -4,6 C
07.03.2011 01:36 -4,6 C -4,4 C -3,4 C 71 % 1032 hPa 0,0 l/m 0,0 m/s (0 Bft) O 95 0 min 0 lux -9,0 C -4,6 C
07.03.2011 01:41 -4,6 C -4,5 C -3,4 C 71 % 1032 hPa 0,0 l/m 0,0 m/s (0 Bft) O 95 0 min 0 lux -9,0 C -4,6 C
07.03.2011 01:46 -4,7 C -4,5 C -3,4 C 71 % 1032 hPa 0,0 l/m 0,0 m/s (0 Bft) O 95 0 min 0 lux -9,1 C -4,7 C
07.03.2011 01:51 -4,8 C -4,5 C -3,4 C 71 % 1032 hPa 0,0 l/m 0,0 m/s (0 Bft) O 95 0 min 0 lux -9,2 C -4,8 C
07.03.2011 01:56 -5,0 C -4,5 C -3,5 C 71 % 1032 hPa 0,0 l/m 0,0 m/s (0 Bft) O 95 0 min 0 lux -9,4 C -5,0 C
07.03.2011 02:01 -5,0 C -4,5 C -3,5 C 71 % 1032 hPa 0,0 l/m 0,0 m/s (0 Bft) O 95 0 min 0 lux -9,4 C -5,0 C
07.03.2011 02:06 -5,1 C -4,6 C -3,7 C 72 % 1032 hPa 0,0 l/m 0,0 m/s (0 Bft) O 95 0 min 0 lux -9,3 C -5,1 C
07.03.2011 02:11 -5,3 C -4,6 C -3,6 C 72 % 1032 hPa 0,0 l/m 0,0 m/s (0 Bft) O 95 0 min 0 lux -9,5 C -5,3 C
07.03.2011 02:16 -5,3 C -4,7 C -3,6 C 73 % 1032 hPa 0,0 l/m 0,0 m/s (0 Bft) O 95 0 min 0 lux -9,4 C -5,3 C
07.03.2011 02:21 -5,3 C -4,7 C -3,6 C 73 % 1032 hPa 0,0 l/m 0,0 m/s (0 Bft) O 95 0 min 0 lux -9,4 C -5,3 C
07.03.2011 02:26 -5,4 C -4,7 C -3,9 C 72 % 1032 hPa 0,0 l/m 0,0 m/s (0 Bft) O 95 0 min 0 lux -9,6 C -5,4 C
07.03.2011 02:31 -5,5 C -4,7 C -3,9 C 72 % 1032 hPa 0,0 l/m 0,0 m/s (0 Bft) O 95 0 min 0 lux -9,7 C -5,5 C
07.03.2011 02:36 -5,5 C -4,7 C -3,7 C 72 % 1032 hPa 0,0 l/m 0,0 m/s (0 Bft) O 95 0 min 0 lux -9,7 C -5,5 C
07.03.2011 02:41 -5,5 C -4,8 C -3,9 C 72 % 1032 hPa 0,0 l/m 0,0 m/s (0 Bft) O 95 0 min 0 lux -9,7 C -5,5 C
07.03.2011 02:46 -5,6 C -4,8 C -3,9 C 74 % 1032 hPa 0,0 l/m 0,0 m/s (0 Bft) O 95 0 min 0 lux -9,5 C -5,6 C
07.03.2011 02:51 -5,5 C -4,8 C -3,9 C 74 % 1032 hPa 0,0 l/m 0,0 m/s (0 Bft) O 95 0 min 0 lux -9,4 C -5,5 C
07.03.2011 02:56 -5,5 C -4,8 C -4,0 C 73 % 1032 hPa 0,0 l/m 0,0 m/s (0 Bft) O 95 0 min 0 lux -9,6 C -5,5 C
07.03.2011 03:01 -5,7 C -4,9 C -4,0 C 73 % 1032 hPa 0,0 l/m 0,0 m/s (0 Bft) O 95 0 min 0 lux -9,7 C -5,7 C
07.03.2011 03:06 -5,7 C -5,0 C -4,2 C 73 % 1032 hPa 0,0 l/m 0,0 m/s (0 Bft) O 95 0 min 0 lux -9,7 C -5,7 C
07.03.2011 03:11 -5,7 C -5,0 C -4,1 C 74 % 1032 hPa 0,0 l/m 0,0 m/s (0 Bft) O 95 0 min 0 lux -9,6 C -5,7 C
07.03.2011 03:16 -5,7 C -5,0 C -4,2 C 73 % 1032 hPa 0,0 l/m 0,0 m/s (0 Bft) O 95 0 min 0 lux -9,7 C -5,7 C
07.03.2011 03:21 -5,8 C -5,1 C -4,3 C 74 % 1032 hPa 0,0 l/m 0,0 m/s (0 Bft) O 95 0 min 0 lux -9,7 C -5,8 C
07.03.2011 03:26 -5,9 C -5,1 C -4,3 C 74 % 1032 hPa 0,0 l/m 0,0 m/s (0 Bft) O 95 0 min 0 lux -9,8 C -5,9 C
07.03.2011 03:31 -5,8 C -5,2 C -4,3 C 74 % 1032 hPa 0,0 l/m 0,0 m/s (0 Bft) O 100 0 min 0 lux -9,7 C -5,8 C
07.03.2011 03:36 -5,8 C -5,2 C -4,3 C 74 % 1032 hPa 0,0 l/m 0,0 m/s (0 Bft) O 100 0 min 0 lux -9,7 C -5,8 C
07.03.2011 03:41 -5,8 C -5,2 C -4,4 C 74 % 1032 hPa 0,0 l/m 0,0 m/s (0 Bft) O 100 0 min 0 lux -9,7 C -5,8 C
07.03.2011 03:46 -5,8 C -5,2 C -4,5 C 74 % 1032 hPa 0,0 l/m 0,0 m/s (0 Bft) O 100 0 min 0 lux -9,7 C -5,8 C
07.03.2011 03:51 -5,9 C -5,3 C -4,5 C 74 % 1032 hPa 0,0 l/m 0,0 m/s (0 Bft) O 100 0 min 0 lux -9,8 C -5,9 C
07.03.2011 03:56 -5,9 C -5,3 C -4,6 C 74 % 1032 hPa 0,0 l/m 0,0 m/s (0 Bft) O 100 0 min 0 lux -9,8 C -5,9 C
07.03.2011 04:01 -5,9 C -5,3 C -4,6 C 74 % 1032 hPa 0,0 l/m 0,0 m/s (0 Bft) O 100 0 min 0 lux -9,8 C -5,9 C
07.03.2011 04:06 -5,9 C -5,3 C -4,6 C 74 % 1032 hPa 0,0 l/m 0,0 m/s (0 Bft) O 100 0 min 0 lux -9,8 C -5,9 C
07.03.2011 04:11 -5,8 C -5,3 C -4,7 C 75 % 1032 hPa 0,0 l/m 0,0 m/s (0 Bft) O 100 0 min 0 lux -9,5 C -5,8 C
07.03.2011 04:16 -5,7 C -5,4 C -4,8 C 75 % 1032 hPa 0,0 l/m 0,0 m/s (0 Bft) O 95 0 min 0 lux -9,4 C -5,7 C
07.03.2011 04:21 -5,5 C -5,4 C -4,8 C 74 % 1032 hPa 0,0 l/m 0,0 m/s (0 Bft) O 95 0 min 0 lux -9,4 C -5,5 C
07.03.2011 04:26 -5,4 C -5,5 C -4,9 C 74 % 1032 hPa 0,0 l/m 0,0 m/s (0 Bft) O 100 0 min 0 lux -9,3 C -5,4 C
07.03.2011 04:31 -5,5 C -5,5 C -4,9 C 73 % 1032 hPa 0,0 l/m 0,0 m/s (0 Bft) O 95 0 min 0 lux -9,6 C -5,5 C
07.03.2011 04:36 -5,5 C -5,5 C -5,0 C 73 % 1032 hPa 0,0 l/m 0,0 m/s (0 Bft) O 95 0 min 0 lux -9,6 C -5,5 C
07.03.2011 04:41 -5,7 C -5,5 C -5,0 C 73 % 1032 hPa 0,0 l/m 0,0 m/s (0 Bft) O 95 0 min 0 lux -9,7 C -5,7 C
07.03.2011 04:46 -5,8 C -5,6 C -5,1 C 73 % 1032 hPa 0,0 l/m 0,0 m/s (0 Bft) O 95 0 min 0 lux -9,8 C -5,8 C
07.03.2011 04:51 -5,8 C -5,6 C -5,1 C 73 % 1032 hPa 0,0 l/m 0,0 m/s (0 Bft) O 95 0 min 0 lux -9,8 C -5,8 C
07.03.2011 04:56 -5,9 C -5,6 C -5,1 C 73 % 1032 hPa 0,0 l/m 0,0 m/s (0 Bft) O 95 0 min 0 lux -9,9 C -5,9 C
07.03.2011 05:01 -5,9 C -5,6 C -5,2 C 73 % 1032 hPa 0,0 l/m 0,0 m/s (0 Bft) O 100 0 min 0 lux -9,9 C -5,9 C
07.03.2011 05:06 -5,9 C -5,7 C -5,4 C 73 % 1032 hPa 0,0 l/m 0,0 m/s (0 Bft) O 100 0 min 0 lux -9,9 C -5,9 C
07.03.2011 05:11 -6,1 C -5,7 C -5,5 C 73 % 1032 hPa 0,0 l/m 0,0 m/s (0 Bft) O 95 0 min 0 lux -10,1 C -6,1 C
07.03.2011 05:16 -6,2 C -5,7 C -5,5 C 73 % 1032 hPa 0,0 l/m 0,0 m/s (0 Bft) O 100 0 min 0 lux -10,2 C -6,2 C
07.03.2011 05:21 -6,2 C -5,8 C -5,5 C 73 % 1032 hPa 0,0 l/m 0,0 m/s (0 Bft) O 100 0 min 0 lux -10,2 C -6,2 C
07.03.2011 05:27 -6,2 C -5,8 C -5,6 C 73 % 1032 hPa 0,0 l/m 0,0 m/s (0 Bft) O 100 0 min 0 lux -10,2 C -6,2 C
07.03.2011 05:32 -6,2 C -5,8 C -5,6 C 74 % 1032 hPa 0,0 l/m 0,0 m/s (0 Bft) O 95 0 min 0 lux -10,1 C -6,2 C
07.03.2011 05:37 -6,2 C -5,8 C -5,6 C 74 % 1032 hPa 0,0 l/m 0,0 m/s (0 Bft) O 95 0 min 0 lux -10,1 C -6,2 C
07.03.2011 05:42 -6,1 C -5,9 C -5,6 C 74 % 1032 hPa 0,0 l/m 0,0 m/s (0 Bft) O 95 0 min 0 lux -10,0 C -6,1 C
07.03.2011 05:47 -6,1 C -5,9 C -5,6 C 74 % 1032 hPa 0,0 l/m 0,0 m/s (0 Bft) O 95 0 min 0 lux -10,0 C -6,1 C
07.03.2011 05:52 -6,1 C -6,0 C -5,6 C 74 % 1032 hPa 0,0 l/m 0,0 m/s (0 Bft) O 95 0 min 0 lux -10,0 C -6,1 C
07.03.2011 05:57 -6,2 C -6,0 C -5,6 C 73 % 1032 hPa 0,0 l/m 0,0 m/s (0 Bft) O 95 0 min 0 lux -10,2 C -6,2 C
07.03.2011 06:02 -6,3 C -6,1 C -5,7 C 73 % 1032 hPa 0,0 l/m 0,0 m/s (0 Bft) O 95 0 min 0 lux -10,3 C -6,3 C
07.03.2011 06:07 -6,3 C -6,1 C -5,7 C 74 % 1032 hPa 0,0 l/m 0,0 m/s (0 Bft) O 95 0 min 0 lux -10,2 C -6,3 C
07.03.2011 06:12 -6,4 C -6,1 C -5,8 C 74 % 1032 hPa 0,0 l/m 0,0 m/s (0 Bft) O 95 0 min 0 lux -10,2 C -6,4 C
07.03.2011 06:17 -6,5 C -6,1 C -5,9 C 74 % 1032 hPa 0,0 l/m 0,0 m/s (0 Bft) O 95 0 min 0 lux -10,3 C -6,5 C
07.03.2011 06:22 -6,5 C -6,2 C -5,9 C 74 % 1032 hPa 0,0 l/m 0,0 m/s (0 Bft) O 95 0 min 0 lux -10,3 C -6,5 C
07.03.2011 06:27 -6,4 C -6,2 C -5,9 C 74 % 1032 hPa 0,0 l/m 0,0 m/s (0 Bft) O 95 0 min 0 lux -10,2 C -6,4 C
07.03.2011 06:32 -6,4 C -6,2 C -5,8 C 74 % 1032 hPa 0,0 l/m 0,0 m/s (0 Bft) O 95 0 min 0 lux -10,2 C -6,4 C
07.03.2011 06:37 -6,3 C -6,2 C -5,9 C 74 % 1032 hPa 0,0 l/m 0,0 m/s (0 Bft) O 95 0 min 0 lux -10,2 C -6,3 C
07.03.2011 06:42 -6,3 C -6,2 C -5,9 C 74 % 1032 hPa 0,0 l/m 0,0 m/s (0 Bft) O 95 0 min 78 lux -10,2 C -6,3 C
07.03.2011 06:47 -6,3 C -6,3 C -5,9 C 73 % 1032 hPa 0,0 l/m 0,0 m/s (0 Bft) O 95 0 min 158 lux -10,3 C -6,3 C
07.03.2011 06:52 -6,3 C -6,3 C -5,9 C 73 % 1032 hPa 0,0 l/m 0,0 m/s (0 Bft) O 95 0 min 309 lux -10,3 C -6,3 C
07.03.2011 06:57 -6,3 C -6,3 C -5,9 C 73 % 1032 hPa 0,0 l/m 0,0 m/s (0 Bft) O 95 0 min 533 lux -10,3 C -6,3 C
07.03.2011 07:02 -6,3 C -6,4 C -5,9 C 73 % 1032 hPa 0,0 l/m 0,0 m/s (0 Bft) O 95 0 min 856 lux -10,3 C -6,3 C
07.03.2011 07:07 -6,2 C -6,4 C -5,9 C 73 % 1032 hPa 0,0 l/m 0,0 m/s (0 Bft) O 95 0 min 1,05 klux -10,2 C -6,2 C
07.03.2011 07:11 -6,0 C -6,4 C -5,8 C 73 % 1032 hPa 0,0 l/m 0,0 m/s (0 Bft) O 95 0 min 1,48 klux -10,0 C -6,0 C
07.03.2011 07:16 -6,0 C -6,5 C -5,7 C 73 % 1032 hPa 0,0 l/m 0,0 m/s (0 Bft) O 95 5 min 3,86 klux -10,0 C -6,0 C
07.03.2011 07:21 -5,9 C -6,4 C -5,6 C 73 % 1032 hPa 0,0 l/m 0,0 m/s (0 Bft) O 90 5 min 6,48 klux -9,9 C -5,9 C
07.03.2011 07:26 -5,7 C -6,4 C -5,5 C 72 % 1033 hPa 0,0 l/m 0,0 m/s (0 Bft) O 90 5 min 8,36 klux -9,9 C -5,7 C
07.03.2011 07:31 -5,5 C -6,4 C -5,4 C 73 % 1033 hPa 0,0 l/m 0,1 m/s (0 Bft) O 95 5 min 10,1 klux -9,6 C -5,5 C
07.03.2011 07:36 -5,1 C -6,3 C -5,4 C 73 % 1033 hPa 0,0 l/m 0,0 m/s (0 Bft) O 95 5 min 12,0 klux -9,2 C -5,1 C
07.03.2011 07:41 -5,0 C -6,3 C -5,3 C 72 % 1033 hPa 0,0 l/m 0,0 m/s (0 Bft) O 100 5 min 13,9 klux -9,2 C -5,0 C
07.03.2011 07:46 -4,5 C -6,1 C -5,0 C 70 % 1033 hPa 0,0 l/m 0,0 m/s (0 Bft) O 100 5 min 15,6 klux -9,1 C -4,5 C
07.03.2011 07:51 -4,2 C -6,0 C -5,0 C 70 % 1033 hPa 0,0 l/m 0,0 m/s (0 Bft) O 100 5 min 17,2 klux -8,8 C -4,2 C
07.03.2011 07:56 -3,9 C -5,8 C -4,8 C 69 % 1033 hPa 0,0 l/m 0,0 m/s (0 Bft) O 100 5 min 18,9 klux -8,7 C -3,9 C
07.03.2011 08:01 -3,4 C -5,8 C -4,6 C 68 % 1033 hPa 0,0 l/m 0,0 m/s (0 Bft) O 100 5 min 19,7 klux -8,4 C -3,4 C
07.03.2011 08:06 -3,2 C -5,6 C -4,4 C 67 % 1033 hPa 0,0 l/m 0,0 m/s (0 Bft) O 100 5 min 21,2 klux -8,4 C -3,2 C
07.03.2011 08:11 -3,0 C -5,4 C -4,4 C 67 % 1033 hPa 0,0 l/m 0,0 m/s (0 Bft) O 100 5 min 22,5 klux -8,2 C -3,0 C
07.03.2011 08:16 -2,9 C -5,3 C -4,2 C 66 % 1033 hPa 0,0 l/m 0,0 m/s (0 Bft) O-SO 105 5 min 24,0 klux -8,3 C -2,9 C
07.03.2011 08:21 -2,7 C -5,0 C -4,0 C 66 % 1033 hPa 0,0 l/m 0,0 m/s (0 Bft) O-SO 110 5 min 26,8 klux -8,1 C -2,7 C
07.03.2011 08:26 -2,5 C -4,8 C -3,9 C 65 % 1033 hPa 0,0 l/m 0,1 m/s (0 Bft) SO22.5 145 5 min 28,2 klux -8,2 C -2,5 C
07.03.2011 08:31 -2,2 C -4,5 C -3,8 C 63 % 1033 hPa 0,0 l/m 0,1 m/s (0 Bft) SO 130 5 min 29,8 klux -8,3 C -2,2 C
07.03.2011 08:36 -2,1 C -4,4 C -3,5 C 64 % 1033 hPa 0,0 l/m 0,2 m/s (0 Bft) SO45 135 5 min 31,0 klux -8,0 C -2,1 C
07.03.2011 08:41 -1,8 C -4,1 C -3,4 C 63 % 1033 hPa 0,0 l/m 0,0 m/s (0 Bft) O-SO22.5 120 5 min 32,2 klux -7,9 C -1,8 C
07.03.2011 08:46 -1,7 C -3,8 C -3,3 C 62 % 1033 hPa 0,0 l/m 1,9 m/s (2 Bft) O-SO22.5 120 5 min 33,6 klux -8,0 C -2,1 C
07.03.2011 08:51 -1,3 C -3,7 C -3,0 C 60 % 1033 hPa 0,0 l/m 4,0 m/s (3 Bft) SO45 130 5 min 34,2 klux -8,0 C -8,1 C
07.03.2011 08:56 -1,1 C -3,3 C -2,7 C 57 % 1033 hPa 0,0 l/m 3,8 m/s (3 Bft) O-SO22.5 115 5 min 35,5 klux -8,5 C -7,3 C
07.03.2011 09:01 -0,8 C -3,0 C -2,7 C 56 % 1033 hPa 0,0 l/m 4,6 m/s (3 Bft) SO45 125 5 min 36,9 klux -8,5 C -8,9 C
07.03.2011 09:06 -0,6 C -2,9 C -2,5 C 55 % 1033 hPa 0,0 l/m 5,4 m/s (3 Bft) O-SO22.5 105 5 min 38,0 klux -8,5 C -10,2 C
07.03.2011 09:11 -0,6 C -2,7 C -2,4 C 54 % 1033 hPa 0,0 l/m 4,4 m/s (3 Bft) O-SO22.5 115 5 min 39,1 klux -8,7 C -8,2 C
07.03.2011 09:16 -0,4 C -2,3 C -2,1 C 54 % 1033 hPa 0,0 l/m 5,6 m/s (4 Bft) O-SO45 105 5 min 40,3 klux -8,5 C -10,2 C
07.03.2011 09:21 -0,2 C -2,2 C -2,1 C 53 % 1033 hPa 0,0 l/m 4,1 m/s (3 Bft) O-SO45 105 5 min 41,4 klux -8,6 C -7,1 C
07.03.2011 09:26 0,0 C -1,8 C -2,0 C 53 % 1033 hPa 0,0 l/m 5,0 m/s (3 Bft) O-SO45 110 5 min 42,6 klux -8,4 C -8,7 C
07.03.2011 09:31 0,1 C -1,2 C -1,7 C 51 % 1033 hPa 0,0 l/m 5,0 m/s (3 Bft) O-SO45 120 5 min 43,6 klux -8,8 C -8,5 C
07.03.2011 09:36 0,2 C 0,7 C -1,7 C 51 % 1033 hPa 0,0 l/m 3,3 m/s (2 Bft) O-SO45 120 5 min 44,6 klux -8,7 C -4,6 C
07.03.2011 09:41 0,4 C 1,4 C -1,6 C 51 % 1033 hPa 0,0 l/m 4,8 m/s (3 Bft) O-SO45 120 5 min 45,7 klux -8,5 C -7,7 C
07.03.2011 09:46 0,5 C 2,7 C -1,5 C 50 % 1033 hPa 0,0 l/m 5,4 m/s (3 Bft) O-SO22.5 115 5 min 46,1 klux -8,7 C -8,8 C
07.03.2011 09:51 0,6 C 3,7 C -1,3 C 50 % 1033 hPa 0,0 l/m 5,4 m/s (3 Bft) O45 95 5 min 47,1 klux -8,6 C -8,6 C
07.03.2011 09:56 0,6 C 4,2 C -1,3 C 49 % 1033 hPa 0,0 l/m 6,4 m/s (4 Bft) O-SO22.5 105 5 min 48,0 klux -8,9 C -10,1 C
07.03.2011 10:01 0,6 C 4,8 C -1,1 C 49 % 1033 hPa 0,0 l/m 6,4 m/s (4 Bft) O-SO22.5 105 5 min 48,9 klux -8,9 C -10,2 C
07.03.2011 10:06 0,7 C 5,6 C -1,0 C 48 % 1033 hPa 0,0 l/m 5,5 m/s (4 Bft) O45 95 5 min 50,0 klux -9,0 C -8,7 C
07.03.2011 10:12 1,2 C 6,2 C -0,9 C 47 % 1033 hPa 0,0 l/m 5,8 m/s (4 Bft) O22.5 95 6 min 50,8 klux -8,8 C -8,5 C
07.03.2011 10:17 1,2 C 6,7 C -0,7 C 45 % 1033 hPa 0,0 l/m 5,8 m/s (4 Bft) O22.5 95 5 min 51,6 klux -9,4 C -8,5 C
07.03.2011 10:21 1,3 C 7,1 C -0,7 C 45 % 1033 hPa 0,0 l/m 6,3 m/s (4 Bft) O67.5 100 4 min 52,5 klux -9,3 C -9,1 C
07.03.2011 10:26 1,5 C 7,2 C -0,5 C 45 % 1033 hPa 0,0 l/m 6,6 m/s (4 Bft) O-SO22.5 110 5 min 53,3 klux -9,1 C -9,2 C
07.03.2011 10:31 1,6 C 7,8 C -0,5 C 45 % 1033 hPa 0,0 l/m 5,7 m/s (4 Bft) O-SO22.5 105 5 min 54,1 klux -9,0 C -7,8 C
07.03.2011 10:36 1,9 C 8,6 C -0,3 C 44 % 1033 hPa 0,0 l/m 6,0 m/s (4 Bft) O-SO45 115 5 min 54,4 klux -9,0 C -7,8 C
07.03.2011 10:41 2,0 C 8,3 C -0,2 C 43 % 1033 hPa 0,0 l/m 5,8 m/s (4 Bft) O-SO22.5 110 5 min 55,1 klux -9,2 C -7,3 C
07.03.2011 10:46 2,1 C 9,5 C -0,1 C 43 % 1033 hPa 0,0 l/m 5,3 m/s (3 Bft) O-SO45 120 5 min 55,6 klux -9,1 C -6,5 C
07.03.2011 10:51 2,3 C 9,6 C 0,0 C 42 % 1033 hPa 0,0 l/m 5,7 m/s (4 Bft) O-SO45 105 5 min 56,2 klux -9,3 C -6,9 C
07.03.2011 10:57 2,4 C 9,5 C 0,5 C 43 % 1033 hPa 0,0 l/m 6,8 m/s (4 Bft) O-SO45 115 6 min 57,5 klux -8,9 C -8,3 C
07.03.2011 11:02 2,7 C 10,3 C 1,0 C 38 % 1033 hPa 0,0 l/m 6,3 m/s (4 Bft) SO45 135 5 min 57,8 klux -10,2 C -7,2 C
07.03.2011 11:06 2,7 C 10,5 C 1,0 C 38 % 1033 hPa 0,0 l/m 5,4 m/s (3 Bft) O-SO45 115 4 min 58,4 klux -10,2 C -5,8 C
07.03.2011 11:11 3,0 C 10,7 C 1,2 C 37 % 1033 hPa 0,0 l/m 7,6 m/s (4 Bft) O-SO22.5 120 5 min 59,0 klux -10,2 C -8,4 C
07.03.2011 11:16 3,0 C 10,8 C 1,6 C 36 % 1033 hPa 0,0 l/m 6,7 m/s (4 Bft) O-SO22.5 115 5 min 59,5 klux -10,6 C -7,4 C
07.03.2011 11:21 3,1 C 11,2 C 1,6 C 35 % 1033 hPa 0,0 l/m 6,8 m/s (4 Bft) O-SO45 120 5 min 60,1 klux -10,8 C -7,3 C
07.03.2011 11:26 3,1 C 11,7 C 2,0 C 36 % 1033 hPa 0,0 l/m 6,0 m/s (4 Bft) SO45 130 5 min 60,4 klux -10,5 C -6,2 C
07.03.2011 11:31 3,3 C 12,0 C 2,3 C 33 % 1033 hPa 0,0 l/m 5,9 m/s (4 Bft) SO45 125 5 min 60,7 klux -11,4 C -5,9 C
07.03.2011 11:36 3,5 C 12,1 C 2,7 C 34 % 1033 hPa 0,0 l/m 5,5 m/s (3 Bft) SO45 135 5 min 61,1 klux -10,9 C -5,0 C
07.03.2011 11:42 3,9 C 12,3 C 2,9 C 34 % 1033 hPa 0,0 l/m 4,7 m/s (3 Bft) SO45 135 6 min 61,7 klux -10,5 C -3,2 C
07.03.2011 11:47 4,1 C 12,5 C 2,9 C 30 % 1033 hPa 0,0 l/m 8,3 m/s (5 Bft) SO45 140 5 min 62,1 klux -11,9 C -7,6 C
07.03.2011 11:51 3,9 C 12,5 C 3,0 C 29 % 1033 hPa 0,0 l/m 7,7 m/s (4 Bft) SO45 125 4 min 62,4 klux -12,5 C -7,2 C
07.03.2011 11:56 4,0 C 12,7 C 3,0 C 30 % 1033 hPa 0,0 l/m 6,6 m/s (4 Bft) SO45 125 5 min 62,6 klux -12,0 C -5,9 C
07.03.2011 12:01 4,1 C 12,8 C 3,5 C 30 % 1033 hPa 0,0 l/m 7,0 m/s (4 Bft) SO45 135 5 min 62,9 klux -11,9 C -6,2 C
07.03.2011 12:06 4,3 C 13,1 C 3,9 C 32 % 1033 hPa 0,0 l/m 5,2 m/s (3 Bft) O-SO45 120 5 min 63,0 klux -10,9 C -3,6 C
07.03.2011 12:11 4,4 C 13,5 C 3,9 C 30 % 1033 hPa 0,0 l/m 5,8 m/s (4 Bft) O-SO67.5 110 5 min 63,1 klux -11,6 C -4,3 C
07.03.2011 12:16 4,3 C 13,6 C 4,0 C 27 % 1033 hPa 0,0 l/m 7,1 m/s (4 Bft) O-SO22.5 115 5 min 63,2 klux -13,0 C -6,1 C
07.03.2011 12:21 4,5 C 14,1 C 4,2 C 29 % 1033 hPa 0,0 l/m 5,1 m/s (3 Bft) SO45 125 5 min 63,4 klux -12,0 C -3,1 C
07.03.2011 12:26 4,6 C 14,5 C 4,2 C 28 % 1033 hPa 0,0 l/m 5,4 m/s (3 Bft) O-SO45 110 5 min 63,5 klux -12,3 C -3,4 C
07.03.2011 12:32 4,7 C 14,7 C 4,1 C 26 % 1033 hPa 0,0 l/m 6,4 m/s (4 Bft) O-SO22.5 115 6 min 63,7 klux -13,1 C -4,8 C
07.03.2011 12:37 4,7 C 14,9 C 4,1 C 28 % 1033 hPa 0,0 l/m 3,9 m/s (3 Bft) SO45 125 5 min 63,6 klux -12,2 C -0,8 C
07.03.2011 12:41 5,2 C 14,5 C 4,0 C 25 % 1032 hPa 0,0 l/m 7,1 m/s (4 Bft) SO45 135 4 min 63,7 klux -13,2 C -4,8 C
07.03.2011 12:46 5,2 C 14,4 C 4,1 C 27 % 1032 hPa 0,0 l/m 7,1 m/s (4 Bft) SO45 135 5 min 63,6 klux -12,2 C -4,8 C
07.03.2011 12:51 5,2 C 14,1 C 3,9 C 25 % 1032 hPa 0,0 l/m 8,2 m/s (5 Bft) SO45 125 5 min 63,7 klux -13,2 C -6,0 C
07.03.2011 12:56 5,1 C 14,0 C 4,0 C 25 % 1032 hPa 0,0 l/m 7,0 m/s (4 Bft) O-SO45 110 5 min 63,5 klux -13,3 C -4,8 C
07.03.2011 13:01 5,1 C 14,3 C 4,1 C 25 % 1032 hPa 0,0 l/m 6,8 m/s (4 Bft) O-SO22.5 120 5 min 63,4 klux -13,3 C -4,7 C
07.03.2011 13:06 5,3 C 14,5 C 4,1 C 24 % 1032 hPa 0,0 l/m 7,6 m/s (4 Bft) O-SO45 115 5 min 63,5 klux -13,6 C -5,3 C
07.03.2011 13:11 5,2 C 14,5 C 4,0 C 23 % 1032 hPa 0,0 l/m 7,7 m/s (4 Bft) O-SO45 115 5 min 63,2 klux -14,2 C -5,5 C
07.03.2011 13:17 5,2 C 14,8 C 3,9 C 23 % 1032 hPa 0,0 l/m 7,9 m/s (4 Bft) O-SO22.5 115 6 min 63,0 klux -14,2 C -5,7 C
07.03.2011 13:22 5,5 C 15,1 C 4,0 C 23 % 1032 hPa 0,0 l/m 5,9 m/s (4 Bft) SO45 135 5 min 62,8 klux -13,9 C -2,9 C
07.03.2011 13:27 5,6 C 15,0 C 4,1 C 23 % 1032 hPa 0,0 l/m 7,0 m/s (4 Bft) SO45 130 5 min 62,3 klux -13,9 C -4,2 C
07.03.2011 13:31 5,6 C 14,8 C 4,0 C 22 % 1032 hPa 0,0 l/m 7,6 m/s (4 Bft) O-SO22.5 105 4 min 62,1 klux -14,4 C -4,8 C
07.03.2011 13:36 5,8 C 15,1 C 4,1 C 22 % 1032 hPa 0,0 l/m 7,9 m/s (4 Bft) SO22.5 125 5 min 61,9 klux -14,2 C -4,9 C
07.03.2011 13:41 5,9 C 15,2 C 4,1 C 22 % 1032 hPa 0,0 l/m 8,2 m/s (5 Bft) SO45 130 5 min 61,7 klux -14,1 C -5,0 C
07.03.2011 13:46 5,7 C 15,4 C 4,1 C 22 % 1032 hPa 0,0 l/m 6,6 m/s (4 Bft) O-SO45 120 5 min 61,0 klux -14,3 C -3,6 C
07.03.2011 13:51 5,7 C 15,3 C 4,1 C 22 % 1032 hPa 0,0 l/m 9,8 m/s (5 Bft) O-SO22.5 110 5 min 60,3 klux -14,3 C -6,6 C
07.03.2011 13:56 5,7 C 15,6 C 4,2 C 22 % 1032 hPa 0,0 l/m 8,0 m/s (4 Bft) O-SO45 115 5 min 60,3 klux -14,3 C -5,1 C
07.03.2011 14:01 5,9 C 15,5 C 4,1 C 23 % 1032 hPa 0,0 l/m 7,3 m/s (4 Bft) SO45 130 5 min 59,8 klux -13,6 C -4,1 C
07.03.2011 14:07 6,0 C 15,8 C 4,2 C 24 % 1032 hPa 0,0 l/m 6,2 m/s (4 Bft) SO45 130 6 min 59,3 klux -13,0 C -2,7 C
07.03.2011 14:12 6,2 C 15,8 C 4,2 C 22 % 1032 hPa 0,0 l/m 7,5 m/s (4 Bft) SO22.5 135 5 min 58,8 klux -13,9 C -3,9 C
07.03.2011 14:17 6,1 C 16,1 C 4,1 C 22 % 1032 hPa 0,0 l/m 6,0 m/s (4 Bft) SO22.5 125 5 min 58,2 klux -14,0 C -2,3 C
07.03.2011 14:21 5,9 C 15,9 C 4,0 C 22 % 1032 hPa 0,0 l/m 6,8 m/s (4 Bft) SO45 125 4 min 57,9 klux -14,1 C -3,5 C
07.03.2011 14:26 5,9 C 16,3 C 4,1 C 24 % 1032 hPa 0,0 l/m 7,3 m/s (4 Bft) O-SO45 115 5 min 56,7 klux -13,1 C -4,1 C
07.03.2011 14:31 5,9 C 15,9 C 4,1 C 24 % 1032 hPa 0,0 l/m 8,3 m/s (5 Bft) O-SO22.5 105 5 min 56,2 klux -13,1 C -5,1 C
07.03.2011 14:36 5,8 C 16,3 C 4,0 C 24 % 1032 hPa 0,0 l/m 7,4 m/s (4 Bft) O-SO22.5 110 5 min 55,8 klux -13,2 C -4,4 C
07.03.2011 14:41 6,0 C 16,8 C 4,0 C 25 % 1032 hPa 0,0 l/m 7,4 m/s (4 Bft) O-SO22.5 110 5 min 55,0 klux -12,5 C -4,1 C
07.03.2011 14:46 6,2 C 16,7 C 4,1 C 25 % 1032 hPa 0,0 l/m 7,2 m/s (4 Bft) SO45 135 5 min 54,2 klux -12,3 C -3,6 C
07.03.2011 14:51 6,4 C 16,2 C 4,0 C 25 % 1032 hPa 0,0 l/m 6,3 m/s (4 Bft) SO22.5 130 5 min 53,5 klux -12,2 C -2,4 C
07.03.2011 14:57 6,5 C 15,7 C 4,0 C 25 % 1032 hPa 0,0 l/m 5,2 m/s (3 Bft) SO22.5 125 6 min 52,7 klux -12,1 C -0,7 C
07.03.2011 15:02 6,5 C 15,8 C 4,0 C 25 % 1032 hPa 0,0 l/m 7,3 m/s (4 Bft) SO45 135 5 min 51,9 klux -12,1 C -3,2 C
07.03.2011 15:07 6,3 C 16,3 C 4,0 C 25 % 1032 hPa 0,0 l/m 5,9 m/s (4 Bft) O-SO45 115 5 min 51,5 klux -12,2 C -1,9 C
07.03.2011 15:11 6,4 C 16,9 C 4,0 C 25 % 1032 hPa 0,0 l/m 5,0 m/s (3 Bft) SO45 135 4 min 50,6 klux -12,2 C -0,6 C
07.03.2011 15:16 6,6 C 17,2 C 4,0 C 25 % 1031 hPa 0,0 l/m 4,9 m/s (3 Bft) SO45 125 5 min 49,7 klux -12,0 C -0,1 C
07.03.2011 15:21 6,8 C 16,9 C 4,0 C 25 % 1031 hPa 0,0 l/m 5,2 m/s (3 Bft) SO22.5 125 5 min 48,7 klux -11,8 C -0,3 C
07.03.2011 15:26 6,8 C 15,9 C 4,1 C 25 % 1031 hPa 0,0 l/m 5,5 m/s (3 Bft) SO45 125 5 min 47,8 klux -11,8 C -0,8 C
07.03.2011 15:31 6,7 C 15,9 C 4,2 C 25 % 1031 hPa 0,0 l/m 7,0 m/s (4 Bft) SO45 140 5 min 46,7 klux -11,9 C -2,7 C
07.03.2011 15:36 6,6 C 15,8 C 4,1 C 24 % 1031 hPa 0,0 l/m 6,0 m/s (4 Bft) SO45 135 5 min 45,7 klux -12,5 C -1,6 C
07.03.2011 15:41 6,7 C 16,0 C 4,1 C 25 % 1031 hPa 0,0 l/m 5,8 m/s (4 Bft) SO45 135 5 min 44,7 klux -11,9 C -1,3 C
07.03.2011 15:47 6,7 C 15,5 C 4,1 C 25 % 1031 hPa 0,0 l/m 5,6 m/s (4 Bft) SO67.5 135 6 min 43,7 klux -11,9 C -1,0 C
07.03.2011 15:52 6,6 C 15,6 C 4,1 C 24 % 1031 hPa 0,0 l/m 6,8 m/s (4 Bft) O-SO45 120 5 min 42,7 klux -12,5 C -2,7 C
07.03.2011 15:56 6,4 C 16,1 C 3,9 C 24 % 1031 hPa 0,0 l/m 3,9 m/s (3 Bft) O-SO22.5 115 4 min 42,2 klux -12,7 C 1,3 C
07.03.2011 16:01 6,4 C 16,7 C 3,9 C 24 % 1031 hPa 0,0 l/m 5,0 m/s (3 Bft) O-SO22.5 105 5 min 41,0 klux -12,7 C -0,5 C
07.03.2011 16:06 6,4 C 16,9 C 4,1 C 25 % 1031 hPa 0,0 l/m 5,3 m/s (3 Bft) SO45 125 5 min 39,7 klux -12,2 C -1,1 C
07.03.2011 16:11 6,4 C 16,9 C 4,0 C 25 % 1031 hPa 0,0 l/m 6,5 m/s (4 Bft) O-SO45 105 5 min 38,6 klux -12,2 C -2,5 C
07.03.2011 16:16 6,4 C 16,7 C 3,9 C 25 % 1031 hPa 0,0 l/m 5,8 m/s (4 Bft) O-SO22.5 105 5 min 37,4 klux -12,2 C -1,6 C
07.03.2011 16:21 6,2 C 16,5 C 3,9 C 25 % 1031 hPa 0,0 l/m 6,8 m/s (4 Bft) O-SO22.5 110 5 min 36,2 klux -12,3 C -3,2 C
07.03.2011 16:26 6,2 C 16,5 C 3,9 C 26 % 1031 hPa 0,0 l/m 5,3 m/s (3 Bft) O-SO22.5 115 5 min 35,0 klux -11,8 C -1,3 C
07.03.2011 16:31 6,2 C 15,7 C 3,8 C 25 % 1031 hPa 0,0 l/m 6,7 m/s (4 Bft) O-SO22.5 105 5 min 33,6 klux -12,3 C -3,0 C
07.03.2011 16:36 6,0 C 16,1 C 3,9 C 25 % 1031 hPa 0,0 l/m 7,2 m/s (4 Bft) O-SO22.5 115 5 min 32,3 klux -12,5 C -3,8 C
07.03.2011 16:41 5,9 C 15,9 C 3,9 C 25 % 1031 hPa 0,0 l/m 6,5 m/s (4 Bft) O-SO22.5 110 5 min 31,0 klux -12,6 C -3,2 C
07.03.2011 16:45 5,8 C 15,8 C 3,8 C 25 % 1031 hPa 0,0 l/m 5,0 m/s (3 Bft) O-SO22.5 115 4 min 29,6 klux -12,7 C -1,3 C
07.03.2011 16:50 5,8 C 15,8 C 3,8 C 25 % 1031 hPa 0,0 l/m 6,4 m/s (4 Bft) O-SO45 120 5 min 28,9 klux -12,7 C -3,2 C
07.03.2011 16:55 5,8 C 15,6 C 3,7 C 25 % 1031 hPa 0,0 l/m 4,5 m/s (3 Bft) O-SO22.5 115 5 min 27,5 klux -12,7 C -0,5 C
07.03.2011 17:01 5,6 C 15,5 C 3,6 C 25 % 1031 hPa 0,0 l/m 5,7 m/s (4 Bft) O-SO22.5 115 6 min 24,2 klux -12,8 C -2,6 C
07.03.2011 17:06 5,6 C 14,9 C 3,5 C 25 % 1031 hPa 0,0 l/m 4,7 m/s (3 Bft) O-SO22.5 105 5 min 23,0 klux -12,8 C -1,1 C
07.03.2011 17:11 5,5 C 14,7 C 3,5 C 25 % 1031 hPa 0,0 l/m 5,7 m/s (4 Bft) O-SO45 115 5 min 21,6 klux -12,9 C -2,7 C
07.03.2011 17:16 5,4 C 14,4 C 3,5 C 26 % 1031 hPa 0,0 l/m 4,8 m/s (3 Bft) O-SO22.5 120 5 min 20,2 klux -12,5 C -1,4 C
07.03.2011 17:21 5,4 C 14,4 C 3,6 C 26 % 1031 hPa 0,0 l/m 4,7 m/s (3 Bft) SO22.5 130 5 min 18,7 klux -12,5 C -1,3 C
07.03.2011 17:26 5,4 C 14,1 C 3,3 C 26 % 1031 hPa 0,0 l/m 5,1 m/s (3 Bft) SO45 135 5 min 17,0 klux -12,5 C -1,9 C
07.03.2011 17:31 5,2 C 13,4 C 3,3 C 26 % 1031 hPa 0,0 l/m 0,0 m/s (0 Bft) O-SO22.5 115 5 min 15,2 klux -12,7 C 5,2 C
07.03.2011 17:35 5,1 C 12,7 C 3,2 C 26 % 1031 hPa 0,0 l/m 5,0 m/s (3 Bft) O-SO22.5 110 4 min 13,3 klux -12,8 C -2,2 C
07.03.2011 17:40 4,9 C 10,7 C 3,1 C 26 % 1031 hPa 0,0 l/m 6,1 m/s (4 Bft) O-SO45 105 5 min 11,4 klux -13,0 C -4,0 C
07.03.2011 17:46 4,8 C 9,7 C 3,1 C 26 % 1031 hPa 0,0 l/m 5,4 m/s (3 Bft) O-SO22.5 115 6 min 10,4 klux -13,0 C -3,3 C
07.03.2011 17:51 4,7 C 9,0 C 3,0 C 27 % 1031 hPa 0,0 l/m 5,3 m/s (3 Bft) O-SO22.5 105 5 min 8,63 klux -12,7 C -3,2 C
07.03.2011 17:56 4,6 C 8,1 C 3,0 C 27 % 1031 hPa 0,0 l/m 5,0 m/s (3 Bft) O-SO22.5 115 5 min 6,77 klux -12,8 C -2,8 C
07.03.2011 18:01 4,5 C 7,6 C 2,9 C 27 % 1031 hPa 0,0 l/m 6,0 m/s (4 Bft) O-SO22.5 110 5 min 4,89 klux -12,8 C -4,4 C
07.03.2011 18:06 4,3 C 6,7 C 2,7 C 28 % 1031 hPa 0,0 l/m 5,4 m/s (3 Bft) O-SO45 115 5 min 1,78 klux -12,6 C -3,8 C
07.03.2011 18:11 4,2 C 6,7 C 2,5 C 28 % 1031 hPa 0,0 l/m 3,6 m/s (3 Bft) O22.5 100 0 min 1,08 klux -12,6 C -0,8 C
07.03.2011 18:16 3,9 C 5,8 C 2,3 C 28 % 1031 hPa 0,0 l/m 2,9 m/s (2 Bft) O45 100 0 min 885 lux -12,9 C 0,6 C
07.03.2011 18:21 3,8 C 5,3 C 2,3 C 28 % 1031 hPa 0,0 l/m 4,1 m/s (3 Bft) O22.5 100 0 min 557 lux -13,0 C -2,2 C
07.03.2011 18:25 3,6 C 5,1 C 2,1 C 29 % 1031 hPa 0,0 l/m 3,9 m/s (3 Bft) O-SO22.5 105 0 min 329 lux -12,7 C -2,2 C
07.03.2011 18:30 3,4 C 4,7 C 1,9 C 29 % 1030 hPa 0,0 l/m 3,6 m/s (3 Bft) O-SO22.5 110 0 min 176 lux -12,9 C -1,7 C
07.03.2011 18:36 3,1 C 4,2 C 1,7 C 30 % 1030 hPa 0,0 l/m 3,3 m/s (2 Bft) O22.5 90 0 min 124 lux -12,8 C -1,3 C
07.03.2011 18:41 2,7 C 4,0 C 1,6 C 31 % 1030 hPa 0,0 l/m 0,3 m/s (1 Bft) O22.5 95 0 min 60 lux -12,7 C 2,7 C
07.03.2011 18:46 2,6 C 3,8 C 1,3 C 31 % 1031 hPa 0,0 l/m 0,5 m/s (1 Bft) O22.5 90 0 min 32 lux -12,8 C 2,6 C
07.03.2011 18:51 2,1 C 3,2 C 1,1 C 33 % 1031 hPa 0,0 l/m 0,0 m/s (0 Bft) O22.5 80 0 min 20 lux -12,5 C 2,1 C
07.03.2011 18:56 2,0 C 2,8 C 1,0 C 33 % 1031 hPa 0,0 l/m 0,3 m/s (1 Bft) O22.5 80 0 min 14 lux -12,5 C 2,0 C
07.03.2011 19:01 1,5 C 2,6 C 0,8 C 34 % 1031 hPa 0,0 l/m 0,0 m/s (0 Bft) O-NO22.5 65 0 min 8 lux -12,6 C 1,5 C
07.03.2011 19:06 1,3 C 2,3 C 0,5 C 35 % 1031 hPa 0,0 l/m 0,1 m/s (0 Bft) O 80 0 min 3 lux -12,4 C 1,3 C
07.03.2011 19:10 1,2 C 2,1 C 0,5 C 36 % 1031 hPa 0,0 l/m 0,1 m/s (0 Bft) O22.5 90 0 min 0 lux -12,2 C 1,2 C
07.03.2011 19:15 1,1 C 1,9 C 0,3 C 35 % 1031 hPa 0,0 l/m 0,0 m/s (0 Bft) O22.5 90 0 min 0 lux -12,6 C 1,1 C
07.03.2011 19:20 0,9 C 1,7 C 0,1 C 36 % 1031 hPa 0,0 l/m 0,0 m/s (0 Bft) O22.5 85 0 min 0 lux -12,4 C 0,9 C
07.03.2011 19:26 0,7 C 1,4 C -0,1 C 37 % 1031 hPa 0,0 l/m 0,1 m/s (0 Bft) O22.5 85 0 min 0 lux -12,3 C 0,7 C
07.03.2011 19:31 0,6 C 1,2 C -0,1 C 38 % 1031 hPa 0,0 l/m 0,1 m/s (0 Bft) O22.5 80 0 min 0 lux -12,0 C 0,6 C
07.03.2011 19:36 0,6 C 1,0 C -0,2 C 38 % 1031 hPa 0,0 l/m 0,0 m/s (0 Bft) O22.5 80 0 min 0 lux -12,0 C 0,6 C
07.03.2011 19:41 0,4 C 0,8 C -0,3 C 38 % 1031 hPa 0,0 l/m 0,3 m/s (1 Bft) O-NO22.5 75 0 min 0 lux -12,2 C 0,4 C
07.03.2011 19:46 0,1 C 0,6 C -0,5 C 39 % 1031 hPa 0,0 l/m 0,0 m/s (0 Bft) O-NO22.5 60 0 min 0 lux -12,2 C 0,1 C
07.03.2011 19:51 -0,2 C 0,5 C -0,6 C 39 % 1031 hPa 0,0 l/m 0,0 m/s (0 Bft) NO22.5 55 0 min 0 lux -12,4 C -0,2 C
07.03.2011 19:56 -0,2 C 0,4 C -0,7 C 41 % 1031 hPa 0,0 l/m 0,1 m/s (0 Bft) O-NO22.5 70 0 min 0 lux -11,8 C -0,2 C
07.03.2011 20:00 -0,2 C 0,2 C -0,9 C 40 % 1031 hPa 0,0 l/m 0,0 m/s (0 Bft) NO 35 0 min 0 lux -12,1 C -0,2 C
07.03.2011 20:05 -0,4 C 0,1 C -0,9 C 40 % 1031 hPa 0,0 l/m 0,0 m/s (0 Bft) NO22.5 55 0 min 0 lux -12,3 C -0,4 C
07.03.2011 20:10 -0,6 C 0,0 C -1,1 C 40 % 1031 hPa 0,0 l/m 0,0 m/s (0 Bft) O22.5 80 0 min 0 lux -12,5 C -0,6 C
07.03.2011 20:16 -0,6 C -0,2 C -1,0 C 42 % 1031 hPa 0,0 l/m 0,0 m/s (0 Bft) O22.5 80 0 min 0 lux -11,9 C -0,6 C
07.03.2011 20:21 -0,6 C -0,3 C -1,1 C 41 % 1031 hPa 0,0 l/m 0,1 m/s (0 Bft) O-NO22.5 60 0 min 0 lux -12,2 C -0,6 C
07.03.2011 20:26 -0,6 C -0,3 C -1,2 C 42 % 1031 hPa 0,0 l/m 0,0 m/s (0 Bft) O-NO 70 0 min 0 lux -11,9 C -0,6 C
07.03.2011 20:31 -0,6 C -0,4 C -1,3 C 41 % 1031 hPa 0,0 l/m 0,1 m/s (0 Bft) O-NO45 60 0 min 0 lux -12,2 C -0,6 C
07.03.2011 20:36 -0,6 C -0,6 C -1,4 C 41 % 1031 hPa 0,0 l/m 0,0 m/s (0 Bft) NO22.5 55 0 min 0 lux -12,2 C -0,6 C
07.03.2011 20:41 -0,7 C -0,6 C -1,5 C 41 % 1031 hPa 0,0 l/m 0,2 m/s (0 Bft) O-NO22.5 65 0 min 0 lux -12,3 C -0,7 C
07.03.2011 20:46 -0,7 C -0,8 C -1,5 C 41 % 1031 hPa 0,0 l/m 0,0 m/s (0 Bft) O-NO22.5 60 0 min 0 lux -12,3 C -0,7 C
07.03.2011 20:50 -0,7 C -0,9 C -1,6 C 41 % 1031 hPa 0,0 l/m 0,0 m/s (0 Bft) O-NO 70 0 min 0 lux -12,3 C -0,7 C
07.03.2011 20:55 -0,7 C -0,9 C -1,6 C 42 % 1031 hPa 0,0 l/m 0,1 m/s (0 Bft) O22.5 80 0 min 0 lux -12,0 C -0,7 C
07.03.2011 21:01 -0,6 C -0,9 C -1,6 C 41 % 1031 hPa 0,0 l/m 0,0 m/s (0 Bft) O-NO45 65 0 min 0 lux -12,2 C -0,6 C
07.03.2011 21:06 -0,6 C -1,0 C -1,8 C 41 % 1031 hPa 0,0 l/m 0,0 m/s (0 Bft) O-NO22.5 75 0 min 0 lux -12,2 C -0,6 C
07.03.2011 21:11 -0,7 C -1,1 C -1,9 C 41 % 1031 hPa 0,0 l/m 0,0 m/s (0 Bft) O 90 0 min 0 lux -12,3 C -0,7 C
07.03.2011 21:16 -1,0 C -1,1 C -1,9 C 42 % 1031 hPa 0,0 l/m 0,0 m/s (0 Bft) O-NO22.5 70 0 min 0 lux -12,3 C -1,0 C
07.03.2011 21:21 -1,1 C -1,2 C -1,9 C 42 % 1031 hPa 0,0 l/m 0,0 m/s (0 Bft) O-NO45 65 0 min 0 lux -12,3 C -1,1 C
07.03.2011 21:26 -1,2 C -1,3 C -2,1 C 42 % 1031 hPa 0,0 l/m 0,1 m/s (0 Bft) NO 50 0 min 0 lux -12,4 C -1,2 C
07.03.2011 21:31 -1,3 C -1,4 C -2,1 C 42 % 1031 hPa 0,0 l/m 0,0 m/s (0 Bft) O-NO22.5 75 0 min 0 lux -12,5 C -1,3 C
07.03.2011 21:35 -1,5 C -1,5 C -2,1 C 43 % 1031 hPa 0,0 l/m 0,0 m/s (0 Bft) O-NO 65 0 min 0 lux -12,4 C -1,5 C
07.03.2011 21:40 -1,6 C -1,5 C -2,3 C 43 % 1031 hPa 0,0 l/m 0,1 m/s (0 Bft) O-NO 70 0 min 0 lux -12,5 C -1,6 C
07.03.2011 21:45 -1,6 C -1,6 C -2,4 C 43 % 1031 hPa 0,0 l/m 0,0 m/s (0 Bft) O 80 0 min 0 lux -12,5 C -1,6 C
07.03.2011 21:51 -1,9 C -1,6 C -2,4 C 44 % 1031 hPa 0,0 l/m 0,0 m/s (0 Bft) O 80 0 min 0 lux -12,5 C -1,9 C
07.03.2011 21:56 -2,3 C -1,7 C -1,8 C 46 % 1031 hPa 0,0 l/m 0,0 m/s (0 Bft) O 80 0 min 0 lux -12,3 C -2,3 C
07.03.2011 22:01 -2,4 C -1,8 C -1,8 C 45 % 1031 hPa 0,0 l/m 0,0 m/s (0 Bft) O 80 0 min 0 lux -12,7 C -2,4 C
07.03.2011 22:06 -2,6 C -1,9 C -1,8 C 46 % 1031 hPa 0,0 l/m 0,0 m/s (0 Bft) O 80 0 min 0 lux -12,6 C -2,6 C
07.03.2011 22:11 -2,7 C -1,9 C -1,8 C 46 % 1031 hPa 0,0 l/m 0,0 m/s (0 Bft) O 80 0 min 0 lux -12,7 C -2,7 C
07.03.2011 22:16 -2,8 C -2,0 C -1,8 C 46 % 1030 hPa 0,0 l/m 0,0 m/s (0 Bft) O 80 0 min 0 lux -12,8 C -2,8 C
07.03.2011 22:21 -3,0 C -2,0 C -1,9 C 47 % 1030 hPa 0,0 l/m 0,0 m/s (0 Bft) O 80 0 min 0 lux -12,7 C -3,0 C
07.03.2011 22:25 -3,0 C -2,1 C -1,9 C 47 % 1030 hPa 0,0 l/m 0,0 m/s (0 Bft) O 80 0 min 0 lux -12,7 C -3,0 C
07.03.2011 22:30 -2,9 C -2,2 C -2,0 C 47 % 1030 hPa 0,0 l/m 0,0 m/s (0 Bft) O 80 0 min 0 lux -12,6 C -2,9 C
07.03.2011 22:35 -3,0 C -2,3 C -2,0 C 47 % 1030 hPa 0,0 l/m 0,0 m/s (0 Bft) O 80 0 min 0 lux -12,7 C -3,0 C
07.03.2011 22:41 -2,8 C -2,3 C -1,9 C 47 % 1030 hPa 0,0 l/m 0,0 m/s (0 Bft) O 80 0 min 0 lux -12,5 C -2,8 C
07.03.2011 22:46 -2,6 C -2,4 C -1,8 C 47 % 1030 hPa 0,0 l/m 0,0 m/s (0 Bft) O 80 0 min 0 lux -12,3 C -2,6 C
07.03.2011 22:51 -2,6 C -2,4 C -1,9 C 48 % 1030 hPa 0,0 l/m 0,0 m/s (0 Bft) O 90 0 min 0 lux -12,1 C -2,6 C
07.03.2011 22:56 -2,8 C -2,4 C -2,0 C 48 % 1030 hPa 0,0 l/m 0,0 m/s (0 Bft) O 90 0 min 0 lux -12,2 C -2,8 C
07.03.2011 23:01 -3,0 C -2,5 C -2,1 C 49 % 1030 hPa 0,0 l/m 0,0 m/s (0 Bft) O 85 0 min 0 lux -12,2 C -3,0 C
07.03.2011 23:06 -3,0 C -2,6 C -2,0 C 49 % 1030 hPa 0,0 l/m 0,0 m/s (0 Bft) O-NO 75 0 min 0 lux -12,2 C -3,0 C
07.03.2011 23:11 -3,1 C -2,6 C -2,1 C 48 % 1030 hPa 0,0 l/m 0,0 m/s (0 Bft) O-NO 75 0 min 0 lux -12,5 C -3,1 C
07.03.2011 23:16 -3,0 C -2,7 C -2,1 C 49 % 1030 hPa 0,0 l/m 0,0 m/s (0 Bft) O-NO22.5 75 0 min 0 lux -12,2 C -3,0 C
07.03.2011 23:21 -2,9 C -2,7 C -2,1 C 49 % 1030 hPa 0,0 l/m 0,0 m/s (0 Bft) O 90 0 min 0 lux -12,1 C -2,9 C
07.03.2011 23:26 -2,9 C -2,7 C -2,2 C 49 % 1030 hPa 0,0 l/m 0,0 m/s (0 Bft) O 85 0 min 0 lux -12,1 C -2,9 C
07.03.2011 23:31 -3,0 C -2,7 C -2,2 C 50 % 1030 hPa 0,0 l/m 0,0 m/s (0 Bft) O 85 0 min 0 lux -11,9 C -3,0 C
07.03.2011 23:36 -3,0 C -2,7 C -2,3 C 50 % 1030 hPa 0,0 l/m 0,0 m/s (0 Bft) O-NO 75 0 min 0 lux -11,9 C -3,0 C
07.03.2011 23:41 -3,0 C -2,8 C -2,2 C 49 % 1030 hPa 0,0 l/m 0,0 m/s (0 Bft) O-NO 75 0 min 0 lux -12,2 C -3,0 C
07.03.2011 23:46 -2,8 C -2,8 C -2,2 C 49 % 1030 hPa 0,0 l/m 0,0 m/s (0 Bft) O-NO 75 0 min 0 lux -12,0 C -2,8 C
07.03.2011 23:51 -2,8 C -2,8 C -2,3 C 52 % 1030 hPa 0,0 l/m 0,0 m/s (0 Bft) O22.5 90 0 min 0 lux -11,3 C -2,8 C
07.03.2011 23:56 -2,8 C -2,9 C -2,3 C 50 % 1030 hPa 0,0 l/m 0,0 m/s (0 Bft) O-SO 115 0 min 0 lux -11,7 C -2,8 C
_ Min-Zeit 06:17 07:16 06:17 13:31 18:30 - 00:02 - - - - 13:31 09:16
Minimum _ -6,5 C -6,5 C -5,9 C 22 % 1030 hPa - 0,0 m/s (0 Bft) - - - - -14,4 C -10,2 C
_ Max-Zeit 15:21 15:16 12:21 04:11 07:26 00:02 13:51 - - 10:12 12:32 08:41 17:31
Maximum _ 6,8 C 17,2 C 4,2 C 75 % 1033 hPa 0,0 l/m 9,8 m/s
O-SO (5 Bft)
- - 6 min 63,7 klux -7,9 C 5,2 C
Durchschnitt _ -0,4 C 2,6 C -0,9 C 49 % 1031 hPa #0,0 l/m 2,4 m/s (2 Bft) O-SO - #10:55 h 19,8 klux -11,0 C -4,0 C